Location: Club d'Astronomie Sirius du Saguenay
(48.5448°N, 71.1471°W)
Time: 05:17:51
(UTC-05:00)

N. Korean satellite - Visible Passes

Search period start: 14 December 2017 00:00
Search period end: 24 December 2017 00:00
Orbit: 461 x 513 km, 97.2° (Epoch: 13 December)

Date Brightness Start Highest point End Pass type
(mag) Time Alt. Az. Time Alt. Az. Time Alt. Az.
14 Dec 9.4 05:46:06 10° NE 05:49:00 21° E 05:51:51 10° SE visible
14 Dec 8.2 16:26:34 10° ESE 16:28:58 16° ENE 16:31:23 10° NNE visible
14 Dec 7.6 17:58:31 10° S 18:02:07 48° W 18:05:47 10° NNW visible
15 Dec 10.1 05:23:45 10° ENE 05:25:12 12° E 05:26:39 10° ESE visible
15 Dec 6.6 17:34:48 10° SSE 17:38:31 89° E 17:42:19 10° NNW visible
16 Dec 7.0 06:31:52 10° NNE 06:35:35 71° ESE 06:39:13 10° S visible
16 Dec 6.9 17:11:24 10° SE 17:15:01 47° ENE 17:18:39 10° N visible
16 Dec 9.8 18:46:31 10° SW 18:48:47 15° W 18:51:05 10° NW visible
17 Dec 8.3 06:08:28 10° NNE 06:11:57 37° E 06:15:20 10° SSE visible
17 Dec 7.6 16:48:23 10° SE 16:51:34 27° ENE 16:54:47 10° N visible
17 Dec 8.9 18:21:49 10° SSW 18:25:02 27° W 18:28:17 10° NW visible
18 Dec 9.5 05:45:23 10° NE 05:48:13 21° E 05:51:01 10° SE visible
18 Dec 8.2 16:25:48 10° ESE 16:28:12 16° ENE 16:30:36 10° NNE visible
18 Dec 7.6 17:57:43 10° S 18:01:21 49° W 18:05:02 10° NNW visible
19 Dec 10.1 05:23:05 10° ENE 05:24:24 12° E 05:25:44 10° ESE visible
19 Dec 6.6 06:54:40 10° N 06:58:21 61° WNW 07:01:55 10° SSW visible
19 Dec 6.6 17:34:00 10° SSE 17:37:45 88° ENE 17:41:33 10° NNW visible
20 Dec 7.0 06:31:05 10° NNE 06:34:47 70° ESE 06:38:23 10° S visible
20 Dec 6.9 17:10:37 10° SE 17:14:13 47° ENE 17:17:52 10° N visible
20 Dec 9.7 18:45:40 10° SW 18:47:59 16° W 18:50:19 10° NW visible
21 Dec 8.3 06:07:42 10° NNE 06:11:08 36° E 06:14:29 10° SSE visible
21 Dec 7.6 16:47:35 10° SE 16:50:46 27° ENE 16:53:59 10° N visible
21 Dec 8.8 18:21:00 10° SSW 18:24:13 27° W 18:27:29 10° NW visible
22 Dec 9.5 05:44:37 10° NE 05:47:23 20° E 05:50:07 10° SE visible
22 Dec 8.2 16:25:01 10° ESE 16:27:23 16° ENE 16:29:46 10° NNE visible
22 Dec 7.6 17:56:53 10° S 18:00:32 49° W 18:04:13 10° NNW visible
23 Dec 10.1 05:22:23 10° ENE 05:23:33 11° E 05:24:43 10° ESE visible
23 Dec 6.6 06:53:52 10° N 06:57:30 62° WNW 07:01:03 10° SSW visible
23 Dec 6.6 17:33:10 10° SSE 17:36:56 87° ENE 17:40:43 10° NNW visible
